BEIJING 1 1 28890U 05043A 26069.83471078 .00000673 00000+0 13925-3 0 9998 2 28890 98.2732 202.5921 0013613 226.4177 133.5895 14.63462611 86264 HUANJING 1A (HJ-1A) 1 33320U 08041A 26069.91659442 .00001907 00000+0 23601-3 0 9998 2 33320 97.6639 59.6036 0020620 99.9878 260.3665 14.83724966943837 HUANJING 1B (HJ-1B) 1 33321U 08041B 26069.91040693 .00000899 00000+0 11535-3 0 9993 2 33321 97.6489 63.0573 0037190 143.8864 216.4873 14.83105429943841 YAOGAN-4 1 33446U 08061A 26069.79954978 .00001761 00000+0 22299-3 0 9997 2 33446 97.9248 4.0869 0015261 35.9227 324.3009 14.82982362931088 DEIMOS-1 1 35681U 09041A 26069.83356716 .00001282 00000+0 19710-3 0 9992 2 35681 97.7264 231.3948 0002334 116.9644 243.1804 14.75120127892385 UK-DMC 2 1 35683U 09041C 26069.85637858 .00001124 00000+0 17100-3 0 9991 2 35683 97.8656 207.3285 0001117 93.3720 266.7617 14.75855052892061 DMC3-FM1 1 40715U 15032A 26069.87336295 .00001423 00000+0 17033-3 0 9990 2 40715 97.6609 298.8255 0006394 30.8011 329.3578 14.85618835575317 DMC3-FM2 1 40716U 15032B 26069.89569428 .00000522 00000+0 66232-4 0 9994 2 40716 97.6663 300.3530 0007016 33.6834 326.4826 14.85618994575319 DMC3-FM3 1 40717U 15032C 26069.85141887 .00000967 00000+0 11763-3 0 9997 2 40717 97.6714 301.9994 0006179 35.0870 325.0751 14.85617839575312